VLG2KM LEBL-LEPA

Flight info

Callsign VLG2KM
Flight time 0h 47m
Altitude 17000
Route LARPA7Q LARPA N859 TOLSO TOLSO2P
Aircraft A320/M-SDE2E3GHIJ1J3J4J5LM1ORWXYZ/L

Departure

Time 2026-05-05 16:59
Airport Josep Tarradellas Barcelona-El Prat Airport (LEBL)

Arrival

Time 2026-05-05 17:46
Airport Palma de Mallorca Airport (LEPA)
Time Latitude Longitude Altitude Speed Heading
2026-05-05 16:32 41.29087 2.08211 20 ft 0 kts 336°
2026-05-05 16:47 41.29080 2.08215 19 ft 3 kts 336°
2026-05-05 16:47 41.29061 2.08225 19 ft 3 kts 341°
2026-05-05 16:48 41.29042 2.08233 21 ft 3 kts 349°
2026-05-05 16:48 41.29022 2.08236 20 ft 3 kts
2026-05-05 16:48 41.29011 2.08233 19 ft 3 kts 34°
2026-05-05 16:48 41.29002 2.08223 21 ft 0 kts 65°
2026-05-05 16:52 41.29016 2.08264 20 ft 10 kts 65°
2026-05-05 16:52 41.29026 2.08327 19 ft 6 kts 106°
2026-05-05 16:53 41.28985 2.08345 18 ft 9 kts 191°
2026-05-05 16:53 41.28902 2.08310 18 ft 15 kts 199°
2026-05-05 16:53 41.28792 2.08260 16 ft 18 kts 199°
2026-05-05 16:53 41.28716 2.08238 16 ft 9 kts 158°
2026-05-05 16:54 41.28714 2.08298 16 ft 7 kts 69°
2026-05-05 16:54 41.28735 2.08359 17 ft 8 kts 65°
2026-05-05 16:54 41.28760 2.08430 17 ft 8 kts 65°
2026-05-05 16:54 41.28784 2.08502 18 ft 12 kts 66°
2026-05-05 16:55 41.28830 2.08637 17 ft 20 kts 65°
2026-05-05 16:55 41.28892 2.08819 16 ft 23 kts 65°
2026-05-05 16:55 41.28961 2.09018 16 ft 24 kts 65°
2026-05-05 16:55 41.29033 2.09228 19 ft 26 kts 66°
2026-05-05 16:56 41.29109 2.09454 18 ft 28 kts 65°
2026-05-05 16:56 41.29192 2.09692 17 ft 29 kts 65°
2026-05-05 16:56 41.29257 2.09883 17 ft 14 kts 65°
2026-05-05 16:56 41.29277 2.09996 16 ft 13 kts 105°
2026-05-05 16:57 41.29258 2.10070 16 ft 0 kts 110°
2026-05-05 16:57 41.29257 2.10073 15 ft 1 kts 110°
2026-05-05 16:57 41.29254 2.10085 15 ft 3 kts 110°
2026-05-05 16:57 41.29238 2.10144 15 ft 10 kts 107°
2026-05-05 16:58 41.29247 2.10229 14 ft 9 kts 68°
2026-05-05 16:58 41.29236 2.10302 15 ft 8 kts 147°
2026-05-05 16:58 41.29202 2.10275 15 ft 9 kts 248°
2026-05-05 16:58 41.29112 2.10012 19 ft 66 kts 246°
2026-05-05 16:59 41.28827 2.09180 18 ft 130 kts 244°
2026-05-05 16:59 41.28398 2.07921 263 ft 156 kts 245°
2026-05-05 16:59 41.27823 2.06752 1030 ft 150 kts 225°
2026-05-05 16:59 41.26933 2.06034 1739 ft 151 kts 199°
2026-05-05 17:00 41.25860 2.05854 2301 ft 160 kts 181°
2026-05-05 17:00 41.24728 2.05928 2792 ft 169 kts 182°
2026-05-05 17:00 41.23473 2.05913 3099 ft 191 kts 184°
2026-05-05 17:00 41.22059 2.05863 3421 ft 214 kts 184°
2026-05-05 17:01 41.20545 2.05804 4140 ft 219 kts 184°
2026-05-05 17:01 41.19011 2.05744 4983 ft 221 kts 184°
2026-05-05 17:01 41.17485 2.05502 5788 ft 221 kts 199°
2026-05-05 17:01 41.16037 2.04647 6388 ft 234 kts 210°
2026-05-05 17:02 41.14576 2.03643 7147 ft 238 kts 210°
2026-05-05 17:02 41.13095 2.02626 8028 ft 240 kts 210°
2026-05-05 17:02 41.12100 2.01944 8644 ft 242 kts 210°
2026-05-05 17:02 41.10938 2.01140 9361 ft 243 kts 210°
2026-05-05 17:03 41.09427 2.00123 10279 ft 243 kts 210°
2026-05-05 17:03 41.07951 1.99128 11136 ft 245 kts 210°
2026-05-05 17:03 41.06330 1.98345 11898 ft 257 kts 197°
2026-05-05 17:03 41.04490 1.97849 12241 ft 281 kts 194°
2026-05-05 17:04 41.02483 1.97351 12559 ft 305 kts 194°
2026-05-05 17:04 41.00315 1.96829 12913 ft 324 kts 193°
2026-05-05 17:04 40.98069 1.96301 13592 ft 331 kts 193°
2026-05-05 17:04 40.95749 1.96057 14274 ft 340 kts 179°
2026-05-05 17:05 40.93423 1.96852 14955 ft 354 kts 160°
2026-05-05 17:05 40.91400 1.98741 15626 ft 371 kts 139°
2026-05-05 17:05 40.89744 2.01422 16294 ft 379 kts 134°
2026-05-05 17:05 40.88120 2.04200 16749 ft 384 kts 134°
2026-05-05 17:06 40.86491 2.07011 16869 ft 388 kts 134°
2026-05-05 17:06 40.84841 2.09853 16895 ft 391 kts 134°
2026-05-05 17:06 40.83179 2.12705 16891 ft 392 kts 134°
2026-05-05 17:06 40.81485 2.15520 16893 ft 388 kts 139°
2026-05-05 17:07 40.79508 2.17878 16896 ft 382 kts 147°
2026-05-05 17:07 40.77471 2.20130 16892 ft 382 kts 147°
2026-05-05 17:07 40.75431 2.22374 16893 ft 382 kts 147°
2026-05-05 17:07 40.73385 2.24615 16896 ft 381 kts 147°
2026-05-05 17:08 40.71342 2.26844 16891 ft 381 kts 147°
2026-05-05 17:08 40.69297 2.29068 16881 ft 381 kts 147°
2026-05-05 17:08 40.67251 2.31295 16877 ft 381 kts 147°
2026-05-05 17:08 40.65208 2.33524 16885 ft 381 kts 147°
2026-05-05 17:09 40.63171 2.35751 16890 ft 381 kts 147°
2026-05-05 17:09 40.61158 2.37944 16892 ft 380 kts 147°
2026-05-05 17:09 40.59120 2.40159 16894 ft 380 kts 147°
2026-05-05 17:09 40.57081 2.42375 16895 ft 380 kts 147°
2026-05-05 17:10 40.55042 2.44595 16902 ft 380 kts 147°
2026-05-05 17:10 40.53004 2.46811 16902 ft 380 kts 147°
2026-05-05 17:10 40.50965 2.49026 16901 ft 380 kts 147°
2026-05-05 17:10 40.48923 2.51236 16904 ft 380 kts 147°
2026-05-05 17:11 40.46883 2.53446 16900 ft 380 kts 147°
2026-05-05 17:11 40.44843 2.55660 16898 ft 380 kts 147°
2026-05-05 17:11 40.42799 2.57875 16890 ft 380 kts 147°
2026-05-05 17:11 40.40787 2.60052 16892 ft 380 kts 147°
2026-05-05 17:12 40.38747 2.62254 16889 ft 380 kts 147°
2026-05-05 17:12 40.36705 2.64453 16890 ft 380 kts 147°
2026-05-05 17:12 40.34663 2.66654 16891 ft 380 kts 147°
2026-05-05 17:12 40.32622 2.68853 16873 ft 379 kts 147°
2026-05-05 17:13 40.30608 2.71023 16635 ft 369 kts 147°
2026-05-05 17:13 40.28648 2.73138 16382 ft 360 kts 147°
2026-05-05 17:13 40.26733 2.75201 16123 ft 354 kts 147°
2026-05-05 17:13 40.24831 2.77241 15868 ft 352 kts 147°
2026-05-05 17:14 40.22939 2.79263 15615 ft 350 kts 147°
2026-05-05 17:14 40.21063 2.81273 15339 ft 346 kts 147°
2026-05-05 17:14 40.19213 2.83256 14939 ft 343 kts 147°
2026-05-05 17:14 40.17369 2.85229 14494 ft 342 kts 147°
2026-05-05 17:15 40.15529 2.87197 14051 ft 341 kts 147°
2026-05-05 17:15 40.13693 2.89158 13588 ft 340 kts 147°
2026-05-05 17:15 40.11862 2.91113 13108 ft 339 kts 146°
2026-05-05 17:15 40.10054 2.92987 12752 ft 330 kts 152°
2026-05-05 17:16 40.08084 2.94352 12431 ft 320 kts 158°
2026-05-05 17:16 40.06191 2.95938 11903 ft 326 kts 148°
2026-05-05 17:16 40.04402 2.97736 11625 ft 316 kts 154°
2026-05-05 17:16 40.02456 2.98776 11556 ft 293 kts 172°
2026-05-05 17:17 40.00487 2.99382 11492 ft 290 kts 172°
2026-05-05 17:17 39.98491 2.99997 11316 ft 306 kts 172°
2026-05-05 17:17 39.96385 3.00646 10802 ft 312 kts 171°
2026-05-05 17:17 39.94267 3.01312 10269 ft 314 kts 171°
2026-05-05 17:18 39.92151 3.01987 9735 ft 308 kts 170°
2026-05-05 17:18 39.90106 3.02648 9156 ft 297 kts 170°
2026-05-05 17:18 39.88133 3.03285 8589 ft 288 kts 171°
2026-05-05 17:18 39.86217 3.03900 8033 ft 280 kts 171°
2026-05-05 17:19 39.84337 3.04499 7482 ft 277 kts 171°
2026-05-05 17:19 39.82481 3.05087 6941 ft 272 kts 170°
2026-05-05 17:19 39.80692 3.05652 6411 ft 264 kts 170°
2026-05-05 17:19 39.78925 3.06209 5857 ft 258 kts 170°
2026-05-05 17:20 39.77174 3.06761 5297 ft 253 kts 170°
2026-05-05 17:20 39.75523 3.07283 5012 ft 239 kts 170°
2026-05-05 17:20 39.73906 3.07790 4973 ft 240 kts 173°
2026-05-05 17:20 39.72253 3.07888 4514 ft 237 kts 193°
2026-05-05 17:21 39.70734 3.07188 4058 ft 226 kts 215°
2026-05-05 17:21 39.69560 3.05876 3975 ft 221 kts 234°
2026-05-05 17:21 39.68739 3.04258 3972 ft 204 kts 241°
2026-05-05 17:22 39.67407 3.01404 4007 ft 178 kts 242°
2026-05-05 17:22 39.66763 3.00027 3978 ft 178 kts 242°
2026-05-05 17:22 39.66118 2.98649 3875 ft 178 kts 241°
2026-05-05 17:22 39.65472 2.97272 3681 ft 179 kts 242°
2026-05-05 17:23 39.64835 2.95915 3458 ft 178 kts 241°
2026-05-05 17:23 39.64188 2.94535 3239 ft 179 kts 241°
2026-05-05 17:23 39.63538 2.93145 2981 ft 179 kts 241°
2026-05-05 17:23 39.62879 2.91776 2722 ft 178 kts 240°
2026-05-05 17:24 39.62230 2.90423 2533 ft 177 kts 241°
2026-05-05 17:24 39.61629 2.89098 2331 ft 164 kts 242°
2026-05-05 17:24 39.61074 2.87867 2199 ft 155 kts 241°
2026-05-05 17:24 39.60493 2.86695 1943 ft 154 kts 238°
2026-05-05 17:25 39.59938 2.85546 1678 ft 144 kts 239°
2026-05-05 17:25 39.59604 2.84827 1521 ft 138 kts 240°
2026-05-05 17:25 39.58978 2.83441 1316 ft 129 kts 239°
2026-05-05 17:25 39.58489 2.82415 1137 ft 135 kts 237°
2026-05-05 17:26 39.58000 2.81415 981 ft 133 kts 238°
2026-05-05 17:26 39.57539 2.80392 784 ft 129 kts 238°
2026-05-05 17:26 39.57062 2.79397 669 ft 129 kts 238°
2026-05-05 17:26 39.56599 2.78397 490 ft 132 kts 238°
2026-05-05 17:27 39.56110 2.77378 328 ft 134 kts 240°
2026-05-05 17:27 39.55628 2.76352 149 ft 133 kts 238°
2026-05-05 17:27 39.55153 2.75342 45 ft 125 kts 239°
2026-05-05 17:27 39.54725 2.74441 160 ft 123 kts 237°
2026-05-05 17:28 39.54229 2.73420 687 ft 146 kts 238°
2026-05-05 17:28 39.53660 2.72251 1343 ft 159 kts 238°
2026-05-05 17:28 39.53024 2.70962 1957 ft 181 kts 238°
2026-05-05 17:28 39.52040 2.69763 2608 ft 210 kts 206°
2026-05-05 17:29 39.50565 2.69401 2954 ft 225 kts 177°
2026-05-05 17:29 39.49108 2.70138 3004 ft 230 kts 142°
2026-05-05 17:29 39.48182 2.71776 3007 ft 233 kts 108°
2026-05-05 17:29 39.47893 2.73845 3009 ft 235 kts 94°
2026-05-05 17:30 39.47782 2.75957 3008 ft 235 kts 90°
2026-05-05 17:30 39.48002 2.78036 3008 ft 234 kts 74°
2026-05-05 17:30 39.48418 2.80060 3007 ft 232 kts 73°
2026-05-05 17:30 39.48862 2.82066 2996 ft 233 kts 72°
2026-05-05 17:31 39.49318 2.84077 3000 ft 232 kts 72°
2026-05-05 17:31 39.49772 2.86087 2996 ft 233 kts 72°
2026-05-05 17:31 39.50237 2.88105 2997 ft 235 kts 72°
2026-05-05 17:31 39.50697 2.90124 2990 ft 233 kts 72°
2026-05-05 17:32 39.51158 2.92146 2991 ft 235 kts 72°
2026-05-05 17:32 39.51620 2.94173 2991 ft 234 kts 72°
2026-05-05 17:32 39.52082 2.96192 2991 ft 233 kts 72°
2026-05-05 17:32 39.52537 2.98203 2988 ft 233 kts 73°
2026-05-05 17:33 39.53005 3.00209 2987 ft 232 kts 72°
2026-05-05 17:33 39.53461 3.02222 2988 ft 233 kts 72°
2026-05-05 17:33 39.53919 3.04237 2987 ft 233 kts 72°
2026-05-05 17:33 39.54381 3.06278 2990 ft 241 kts 72°
2026-05-05 17:34 39.54855 3.08372 2986 ft 243 kts 72°
2026-05-05 17:34 39.55338 3.10473 2986 ft 243 kts 72°
2026-05-05 17:34 39.55815 3.12571 2987 ft 242 kts 73°
2026-05-05 17:34 39.56298 3.14666 2985 ft 243 kts 72°
2026-05-05 17:35 39.56789 3.16733 2985 ft 242 kts 67°
2026-05-05 17:35 39.57754 3.18460 2985 ft 237 kts 34°
2026-05-05 17:35 39.59263 3.19252 2987 ft 239 kts
2026-05-05 17:35 39.60869 3.18891 2987 ft 234 kts 330°
2026-05-05 17:36 39.62041 3.17507 2990 ft 229 kts 298°
2026-05-05 17:36 39.62431 3.15537 2984 ft 228 kts 265°
2026-05-05 17:36 39.61926 3.13603 2990 ft 231 kts 239°
2026-05-05 17:36 39.60945 3.11930 2986 ft 234 kts 226°
2026-05-05 17:37 39.60068 3.11114 2984 ft 237 kts 206°
2026-05-05 17:37 39.58494 3.10799 2985 ft 227 kts 173°
2026-05-05 17:37 39.56736 3.12143 2990 ft 235 kts 127°
2026-05-05 17:37 39.56128 3.14122 2990 ft 242 kts 94°
2026-05-05 17:38 39.56413 3.16240 2989 ft 240 kts 61°
2026-05-05 17:38 39.57075 3.17404 2988 ft 237 kts 38°
2026-05-05 17:38 39.58506 3.18334 2987 ft 230 kts
2026-05-05 17:38 39.60041 3.18120 2990 ft 225 kts 332°
2026-05-05 17:39 39.61215 3.16859 2985 ft 220 kts 301°
2026-05-05 17:39 39.61939 3.15106 2978 ft 220 kts 293°
2026-05-05 17:39 39.62565 3.13313 2980 ft 211 kts 292°
2026-05-05 17:39 39.63136 3.11624 2982 ft 201 kts 292°
2026-05-05 17:40 39.63690 3.09962 2988 ft 200 kts 292°
2026-05-05 17:40 39.64237 3.08303 2987 ft 201 kts 292°
2026-05-05 17:40 39.64792 3.06636 2985 ft 201 kts 292°
2026-05-05 17:40 39.65348 3.04968 2985 ft 202 kts 291°
2026-05-05 17:41 39.65647 3.03213 2991 ft 199 kts 272°
2026-05-05 17:41 39.65622 3.01414 2990 ft 199 kts 268°
2026-05-05 17:41 39.65561 2.99619 2986 ft 199 kts 268°
2026-05-05 17:41 39.65471 2.97822 2986 ft 201 kts 262°
2026-05-05 17:42 39.64955 2.96152 2989 ft 201 kts 240°
2026-05-05 17:42 39.64235 2.94629 2986 ft 201 kts 241°
2026-05-05 17:42 39.63505 2.93080 2915 ft 201 kts 240°
2026-05-05 17:42 39.62778 2.91534 2719 ft 200 kts 239°
2026-05-05 17:43 39.62053 2.89992 2466 ft 200 kts 239°
2026-05-05 17:43 39.61329 2.88453 2198 ft 198 kts 240°
2026-05-05 17:43 39.60627 2.86963 1934 ft 188 kts 239°
2026-05-05 17:43 39.59971 2.85568 1719 ft 173 kts 239°
2026-05-05 17:44 39.59380 2.84313 1497 ft 152 kts 237°
2026-05-05 17:44 39.58855 2.83198 1291 ft 138 kts 238°
2026-05-05 17:44 39.58366 2.82160 1081 ft 132 kts 238°
2026-05-05 17:44 39.57899 2.81166 900 ft 127 kts 237°
2026-05-05 17:45 39.57436 2.80186 691 ft 127 kts 236°
2026-05-05 17:45 39.56954 2.79195 589 ft 130 kts 238°
2026-05-05 17:45 39.56500 2.78192 453 ft 129 kts 238°
2026-05-05 17:45 39.56020 2.77186 264 ft 132 kts 239°
2026-05-05 17:46 39.55541 2.76170 120 ft 132 kts 238°
2026-05-05 17:46 39.55080 2.75179 46 ft 123 kts 238°
2026-05-05 17:46 39.54693 2.74370 38 ft 70 kts 239°
2026-05-05 17:46 39.54557 2.74031 38 ft 33 kts 260°
2026-05-05 17:47 39.54551 2.73833 38 ft 9 kts 270°
2026-05-05 17:47 39.54551 2.73809 38 ft 0 kts 269°
2026-05-05 17:48 39.54550 2.73773 38 ft 9 kts 270°
2026-05-05 17:49 39.54564 2.73685 36 ft 11 kts 298°
2026-05-05 17:49 39.54611 2.73617 37 ft 10 kts 304°
2026-05-05 17:49 39.54639 2.73545 37 ft 8 kts 315°
2026-05-05 17:49 39.54684 2.73508 38 ft 7 kts 328°
2026-05-05 17:50 39.54722 2.73473 38 ft 6 kts 310°
2026-05-05 17:50 39.54714 2.73434 36 ft 4 kts 240°
2026-05-05 17:50 39.54698 2.73397 38 ft 5 kts 240°
2026-05-05 17:50 39.54696 2.73393 38 ft 0 kts 240°